Location: Valencia
(39.4670°N, 0.3670°W)
Time: 18:17:09
(UTC+02:00)

ISS - Pass Details

Date: 07 August 2017
Orbit: 401 x 408 km, 51.6° (Epoch: 19 August)

Event Time Altitude Azimuth Distance (km) Brightness Sun altitude
Rises 23:59:01 0° 307° (NW) 2,314 1.1 -26.6°
Reaches altitude 10° 00:01:06 10° 306° (NW) 1,453 -0.2 -26.8°
Enters shadow 00:02:14 20° 305° (NW) 994 -1.2 -26.9°
